Weather History for KHOT - February, 2013

Change the Weather History Date:

Monday, February 18, 2013

  Actual Average Record
Temperature  
Mean Temperature 54 °F -  
Max Temperature 60 °F 56 °F 81 °F (1986)
Min Temperature 48 °F 34 °F 13 °F (1980)
Degree Days  
Heating Degree Days 11    
Growing Degree Days 4 (Base 50)    
Moisture  
Dew Point 47 °F    
Average Humidity 74    
Maximum Humidity 89    
Minimum Humidity 52    
Precipitation  
Precipitation 0.59 in - - ()
Sea Level Pressure  
Sea Level Pressure 29.85 in    
Wind  
Wind Speed 9 mph (SW)    
Max Wind Speed 18 mph    
Max Gust Speed 32 mph    
Visibility 8 miles    
Events Rain , Thunderstorm    
Averages and records for this station are not official NWS values.
T = Trace of Precipitation, MM = Missing Value Source: NWS Daily Summary

Daily Weather History Graph

Daily Weather History Graph

Search for Another Location

Airport or City:

Trip Planner

Search our weather history database for the weather conditions in past years. The results will help you decide how hot, cold, wet, or windy it might be!

Date:

Astronomy

Feb. 18, 2013 Rise Set
Actual Time 6:54 AM CST 5:58 PM CST
Civil Twilight 6:28 AM CST 6:24 PM CST
Nautical Twilight 5:59 AM CST 6:53 PM CST
Astronomical Twilight 5:30 AM CST 7:23 PM CST
Moon 11:52 AM CST (2/18) 1:27 AM CST (2/18)
Length of Visible Light 11h 55m
Length of Day
11h 04m
First Quarter, 58% of the Moon is Illuminated
Feb 18
First Quarter
Feb 25
Full
Mar 4
Last Quarter
Mar 11
New
Mar 19
First Quarter

Hourly Weather History & Observations

Time (CST) Temp. Dew Point Humidity Pressure Visibility Wind Dir Wind Speed Gust Speed Precip Events Conditions
12:53 AM 54.0 °F 39.0 °F 57% 30.00 in 10.0 mi SSW 8.1 mph 19.6 mph N/A   Clear
1:53 AM 53.1 °F 41.0 °F 64% 29.99 in 10.0 mi SSW 13.8 mph 21.9 mph N/A   Scattered Clouds
2:53 AM 53.1 °F 41.0 °F 64% 29.99 in 10.0 mi SSW 11.5 mph 19.6 mph N/A   Mostly Cloudy
3:53 AM 53.1 °F 42.1 °F 66% 29.97 in 10.0 mi South 11.5 mph 19.6 mph N/A   Overcast
4:53 AM 53.1 °F 43.0 °F 69% 29.96 in 10.0 mi South 9.2 mph 19.6 mph N/A   Overcast
5:53 AM 51.8 °F 42.8 °F 71% 29.95 in 10.0 mi SE 9.2 mph - N/A   Overcast
6:53 AM 51.1 °F 43.0 °F 74% 29.94 in 10.0 mi South 10.4 mph - N/A   Overcast
7:53 AM 51.8 °F 44.6 °F 76% 29.93 in 10.0 mi South 5.8 mph 17.3 mph N/A   Overcast
8:53 AM 52.0 °F 46.0 °F 80% 29.93 in 10.0 mi South 8.1 mph 16.1 mph 0.00 in   Overcast
9:53 AM 53.1 °F 46.9 °F 80% 29.90 in 10.0 mi SSE 6.9 mph - 0.00 in   Overcast
10:53 AM 54.0 °F 48.0 °F 80% 29.87 in 10.0 mi South 9.2 mph - 0.01 in Rain Light Rain
11:53 AM 55.9 °F 50.0 °F 80% 29.84 in 10.0 mi South 13.8 mph 24.2 mph 0.01 in Rain Light Rain
12:53 PM 57.0 °F 51.1 °F 81% 29.79 in 9.0 mi South 11.5 mph 23.0 mph 0.02 in Rain Light Rain
1:53 PM 59.0 °F 52.0 °F 78% 29.76 in 10.0 mi South 11.5 mph 21.9 mph 0.00 in Rain Light Rain
2:33 PM 59.0 °F 53.6 °F 82% 29.75 in 10.0 mi Variable 6.9 mph - 0.00 in Rain Light Rain
2:41 PM 60.8 °F 53.6 °F 77% 29.74 in 10.0 mi Variable 5.8 mph - 0.00 in Rain , Thunderstorm Light Rain
2:53 PM 60.1 °F 53.1 °F 78% 29.73 in 10.0 mi South 5.8 mph - 0.00 in Rain , Thunderstorm Light Thunderstorms and Rain
3:16 PM 60.8 °F 53.6 °F 77% 29.72 in 10.0 mi Variable 4.6 mph 16.1 mph 0.00 in   Mostly Cloudy
3:51 PM 60.8 °F 53.6 °F 77% 29.70 in 10.0 mi Variable 6.9 mph - 0.00 in Thunderstorm Overcast
3:53 PM 60.1 °F 54.0 °F 80% 29.69 in 10.0 mi SSE 8.1 mph - 0.00 in Thunderstorm Overcast
4:39 PM 60.8 °F 55.4 °F 82% 29.75 in 2.5 mi WSW 12.7 mph 21.9 mph 0.13 in Rain , Thunderstorm Heavy Thunderstorms and Rain
4:53 PM 60.1 °F 53.1 °F 78% 29.72 in 2.0 mi SW 10.4 mph 24.2 mph 0.24 in Rain , Thunderstorm Thunderstorms and Rain
5:00 PM 59.0 °F 51.8 °F 77% 29.73 in 6.0 mi WSW 9.2 mph - 0.00 in Rain , Thunderstorm Light Thunderstorms and Rain
5:12 PM 57.2 °F 51.8 °F 82% 29.73 in 2.5 mi SW 8.1 mph - 0.05 in Rain , Thunderstorm Heavy Rain
5:21 PM 57.2 °F 51.8 °F 82% 29.74 in 1.0 mi West 18.4 mph 32.2 mph 0.21 in Rain , Thunderstorm Heavy Rain
5:26 PM 57.2 °F 51.8 °F 82% 29.74 in 1.0 mi West 15.0 mph 27.6 mph 0.30 in Rain Heavy Rain
5:34 PM 57.2 °F 51.8 °F 82% 29.75 in 3.0 mi WNW 5.8 mph 19.6 mph 0.31 in Rain Rain
5:53 PM 55.0 °F 52.0 °F 89% 29.77 in 10.0 mi West 4.6 mph - 0.31 in Rain Light Rain
6:53 PM 54.0 °F 48.0 °F 80% 29.83 in 10.0 mi Variable 4.6 mph - 0.00 in   Clear
7:53 PM 52.0 °F 41.0 °F 66% 29.87 in 10.0 mi WNW 5.8 mph - N/A   Clear
8:53 PM 51.1 °F 39.0 °F 63% 29.93 in 10.0 mi NW 6.9 mph - N/A   Clear
9:53 PM 50.0 °F 37.0 °F 61% 29.97 in 10.0 mi NNW 6.9 mph - N/A   Clear
10:53 PM 48.9 °F 35.1 °F 59% 30.01 in 10.0 mi NNW 8.1 mph - N/A   Clear
11:53 PM 48.0 °F 30.9 °F 52% 30.05 in 10.0 mi NW 9.2 mph 27.6 mph N/A   Clear